Location: Starlight Observatory
(38.4029°N, 85.8936°W)
Time: 18:49:38
(UTC-05:00)

Iridium 62 - Visible Passes

Search period start: 07 February 2016 00:00
Search period end: 17 February 2016 00:00
Orbit: 776 x 779 km, 86.4° (Epoch: 07 February)

Date Brightness Start Highest point End Pass type
(mag) Time Alt. Az. Time Alt. Az. Time Alt. Az.
07 Feb 7.4 19:03:40 10° ESE 19:10:04 - NE 19:05:14 13° E visible
07 Feb 6.3 20:41:18 10° SSW 20:50:15 18° N 20:51:36 10° N visible
08 Feb 7.8 07:13:03 10° NNE 07:17:45 33° E 07:22:24 10° SE visible
08 Feb 5.6 20:07:44 10° S 20:12:55 73° E 20:18:07 10° N visible
08 Feb 8.8 21:52:23 10° W 21:54:11 12° WNW 21:56:00 10° NW visible
09 Feb 8.6 06:40:28 10° NE 06:43:58 18° ENE 06:47:27 10° ESE visible
09 Feb 6.2 19:34:43 10° SSE 19:39:30 38° E 19:44:18 10° NNE visible
09 Feb 8.0 21:16:19 10° SW 21:20:19 22° WNW 21:24:20 10° NNW visible
10 Feb 7.0 19:02:25 10° SE 19:06:13 21° E 19:10:01 10° NE visible
10 Feb 7.0 20:41:42 10° SSW 20:46:35 40° W 20:51:30 10° NNW visible
11 Feb 5.9 20:07:47 10° S 20:12:59 77° W 20:18:14 10° N visible
12 Feb 8.2 06:39:55 10° NNE 06:44:14 26° E 06:48:31 10° SE visible
12 Feb 5.8 19:34:26 10° SSE 19:39:31 56° E 19:44:37 10° N visible
12 Feb 8.6 21:17:38 10° WSW 21:20:36 15° WNW 21:23:36 10° NW visible
13 Feb 8.9 06:07:45 10° NE 06:10:24 14° ENE 06:13:03 10° ESE visible
13 Feb 6.6 19:01:40 10° SE 19:06:09 30° E 19:10:38 10° NNE visible
13 Feb 7.8 20:42:22 10° SW 20:46:48 28° W 20:51:15 10° NNW visible
14 Feb 6.6 20:08:03 10° SSW 20:13:07 52° W 20:18:13 10° N visible
15 Feb 7.5 06:39:36 10° NNE 06:44:27 37° E 06:49:15 10° SSE visible
15 Feb 5.7 19:34:22 10° S 19:39:34 83° E 19:44:48 10° N visible
16 Feb 8.6 06:06:52 10° NNE 06:10:42 20° ENE 06:14:31 10° SE visible
16 Feb 6.1 19:01:14 10° SSE 19:06:08 44° E 19:11:04 10° NNE visible
16 Feb 8.4 20:43:21 10° WSW 20:47:03 19° WNW 20:50:46 10° NNW visible
